Location: Bishop�s Knoyle
(51.0728°N, 2.1714°W)
Time: 12:52:27
(UTC+00:00)

O/OREOS (USA 219) - Visible Passes

Search period start: 06 December 2021 00:00
Search period end: 16 December 2021 00:00
Orbit: 621 x 646 km, 72.0° (Epoch: 22 May)

Date Brightness Start Highest point End Pass type
(mag) Time Alt. Az. Time Alt. Az. Time Alt. Az.
07 Dec ? 18:14:42 10° N 18:15:29 12° N 18:15:29 12° N visible
08 Dec ? 18:36:15 10° N 18:37:22 15° N 18:37:22 15° N visible
09 Dec ? 17:20:24 10° NNE 17:21:46 11° NNE 17:21:51 11° NNE visible
09 Dec ? 18:58:02 10° NNW 18:59:19 18° N 18:59:19 18° N visible
10 Dec ? 17:41:25 10° N 17:43:53 17° NNE 17:43:53 17° NNE visible
10 Dec ? 19:19:59 10° NNW 19:21:21 19° NNW 19:21:21 19° NNW visible
11 Dec ? 18:03:00 10° N 18:06:01 25° NNE 18:06:01 25° NNE visible
11 Dec ? 19:42:09 10° NW 19:43:30 19° NW 19:43:30 19° NW visible
12 Dec ? 16:46:58 10° N 16:48:40 12° NNE 16:50:23 10° NE visible
12 Dec ? 18:24:49 10° NNW 18:28:20 40° NNE 18:28:20 40° NNE visible
12 Dec ? 20:04:37 10° NW 20:05:49 16° WNW 20:05:49 16° WNW visible
13 Dec ? 17:08:08 10° N 17:11:19 18° NE 17:13:21 14° ENE visible
13 Dec ? 18:46:47 10° NNW 18:50:52 69° NNW 18:50:52 69° NNW visible
13 Dec ? 20:27:50 10° WNW 20:28:23 11° WNW 20:28:23 11° WNW visible
14 Dec ? 17:29:46 10° NNW 17:33:48 29° NE 17:36:14 18° E visible
14 Dec ? 19:09:00 10° NW 19:13:26 48° WSW 19:13:47 46° SW visible
15 Dec ? 17:51:36 10° NNW 17:56:07 51° ENE 17:59:49 15° SE visible
15 Dec ? 19:31:32 10° NW 19:35:15 25° WSW 19:37:27 17° SW visible
